DLH3509 EDDS-EDDF

Flight info

Callsign DLH3509
Flight time 0h 25m
Altitude 22000
Route ETASA2H ETASA T163 SPESA SPESA5B
Aircraft A320/M-SDE3FGHIRWY/LB1

Departure

Time 2026-05-05 12:16
Airport Stuttgart Airport (EDDS)

Arrival

Time 2026-05-05 12:41
Airport Frankfurt Main Airport (EDDF)
Time Latitude Longitude Altitude Speed Heading
2026-05-05 11:48 48.68858 9.19213 1387 ft 0 kts 345°
2026-05-05 12:05 48.68851 9.19215 1285 ft 3 kts 346°
2026-05-05 12:06 48.68825 9.19224 1288 ft 3 kts 354°
2026-05-05 12:06 48.68798 9.19225 1286 ft 3 kts
2026-05-05 12:06 48.68776 9.19212 1285 ft 3 kts 58°
2026-05-05 12:06 48.68772 9.19202 1285 ft 0 kts 74°
2026-05-05 12:12 48.68773 9.19205 1285 ft 3 kts 74°
2026-05-05 12:12 48.68788 9.19284 1288 ft 0 kts 74°
2026-05-05 12:12 48.68799 9.19342 1285 ft 15 kts 74°
2026-05-05 12:12 48.68836 9.19541 1290 ft 21 kts 72°
2026-05-05 12:13 48.68880 9.19761 1288 ft 21 kts 75°
2026-05-05 12:13 48.68839 9.19904 1288 ft 16 kts 159°
2026-05-05 12:13 48.68735 9.19966 1288 ft 16 kts 163°
2026-05-05 12:13 48.68675 9.19993 1289 ft 0 kts 163°
2026-05-05 12:14 48.68655 9.20003 1287 ft 11 kts 160°
2026-05-05 12:14 48.68597 9.20097 1376 ft 13 kts 107°
2026-05-05 12:15 48.68612 9.20216 1286 ft 13 kts 75°
2026-05-05 12:15 48.68686 9.20604 1286 ft 76 kts 73°
2026-05-05 12:15 48.68898 9.21706 1290 ft 140 kts 74°
2026-05-05 12:15 48.69210 9.23350 1442 ft 177 kts 73°
2026-05-05 12:16 48.69526 9.25192 2168 ft 180 kts 74°
2026-05-05 12:16 48.69861 9.27029 2872 ft 186 kts 73°
2026-05-05 12:16 48.70238 9.29026 3244 ft 208 kts 73°
2026-05-05 12:16 48.70661 9.31232 3636 ft 229 kts 73°
2026-05-05 12:17 48.71135 9.33684 4089 ft 255 kts 74°
2026-05-05 12:17 48.71655 9.36356 4847 ft 269 kts 74°
2026-05-05 12:17 48.72195 9.39106 5835 ft 274 kts 73°
2026-05-05 12:17 48.73063 9.41481 6708 ft 283 kts 46°
2026-05-05 12:18 48.74766 9.43073 7659 ft 290 kts 20°
2026-05-05 12:18 48.76726 9.43726 8590 ft 295 kts 359°
2026-05-05 12:18 48.78754 9.43149 9522 ft 299 kts 339°
2026-05-05 12:18 48.80679 9.41863 10248 ft 310 kts 329°
2026-05-05 12:19 48.82651 9.40260 10592 ft 334 kts 331°
2026-05-05 12:19 48.84815 9.38632 10973 ft 355 kts 333°
2026-05-05 12:19 48.87085 9.36998 11647 ft 364 kts 333°
2026-05-05 12:19 48.89395 9.35352 12464 ft 369 kts 333°
2026-05-05 12:20 48.91729 9.33679 13243 ft 374 kts 332°
2026-05-05 12:20 48.94062 9.31969 13970 ft 379 kts 332°
2026-05-05 12:20 48.96440 9.30184 14658 ft 383 kts 331°
2026-05-05 12:20 48.98842 9.28353 15379 ft 387 kts 331°
2026-05-05 12:21 49.01266 9.26492 16073 ft 390 kts 331°
2026-05-05 12:21 49.03706 9.24618 16753 ft 394 kts 331°
2026-05-05 12:21 49.06178 9.22725 17438 ft 398 kts 331°
2026-05-05 12:21 49.08637 9.20842 18095 ft 402 kts 331°
2026-05-05 12:22 49.11158 9.18913 18664 ft 406 kts 331°
2026-05-05 12:22 49.13704 9.16967 19212 ft 410 kts 331°
2026-05-05 12:22 49.16307 9.15113 19751 ft 416 kts 337°
2026-05-05 12:22 49.19109 9.13884 20308 ft 421 kts 348°
2026-05-05 12:23 49.22047 9.13409 20856 ft 426 kts 358°
2026-05-05 12:23 49.24983 9.13674 21385 ft 430 kts
2026-05-05 12:23 49.27645 9.14063 21768 ft 433 kts
2026-05-05 12:23 49.30319 9.14454 21882 ft 435 kts
2026-05-05 12:24 49.33389 9.14900 21918 ft 448 kts
2026-05-05 12:24 49.36509 9.15346 21857 ft 450 kts
2026-05-05 12:24 49.39615 9.15787 21227 ft 445 kts
2026-05-05 12:24 49.42685 9.16224 20565 ft 441 kts
2026-05-05 12:25 49.45727 9.16657 19962 ft 436 kts
2026-05-05 12:25 49.48729 9.17087 19367 ft 431 kts
2026-05-05 12:25 49.51672 9.17509 18785 ft 427 kts
2026-05-05 12:25 49.54622 9.17933 18236 ft 423 kts
2026-05-05 12:26 49.57551 9.18357 17630 ft 419 kts
2026-05-05 12:26 49.60437 9.18776 17073 ft 413 kts
2026-05-05 12:26 49.63213 9.19575 16528 ft 409 kts 16°
2026-05-05 12:26 49.65849 9.21188 15986 ft 404 kts 28°
2026-05-05 12:27 49.68204 9.23498 15409 ft 401 kts 39°
2026-05-05 12:27 49.70255 9.26407 14839 ft 397 kts 46°
2026-05-05 12:27 49.72382 9.29096 14229 ft 396 kts 33°
2026-05-05 12:27 49.74849 9.30990 13576 ft 396 kts 20°
2026-05-05 12:28 49.77478 9.32057 12864 ft 395 kts 10°
2026-05-05 12:28 49.80180 9.32774 12172 ft 393 kts
2026-05-05 12:28 49.82877 9.32455 11474 ft 389 kts 344°
2026-05-05 12:28 49.85317 9.30729 10769 ft 384 kts 322°
2026-05-05 12:29 49.87143 9.27841 10453 ft 368 kts 302°
2026-05-05 12:29 49.88227 9.24380 10215 ft 350 kts 285°
2026-05-05 12:29 49.88920 9.20833 9991 ft 337 kts 284°
2026-05-05 12:29 49.89578 9.17412 9896 ft 325 kts 284°
2026-05-05 12:30 49.90209 9.14099 9768 ft 314 kts 284°
2026-05-05 12:30 49.90805 9.10936 9639 ft 303 kts 284°
2026-05-05 12:30 49.91389 9.07842 9508 ft 293 kts 284°
2026-05-05 12:30 49.91959 9.04834 9376 ft 289 kts 284°
2026-05-05 12:31 49.92524 9.01848 9262 ft 287 kts 284°
2026-05-05 12:31 49.93084 8.98869 9133 ft 286 kts 283°
2026-05-05 12:31 49.93640 8.95905 9009 ft 286 kts 284°
2026-05-05 12:31 49.94193 8.92978 8874 ft 285 kts 285°
2026-05-05 12:32 49.95125 8.90270 8763 ft 288 kts 309°
2026-05-05 12:32 49.96719 8.88372 8623 ft 291 kts 334°
2026-05-05 12:32 49.98691 8.87663 8509 ft 293 kts 359°
2026-05-05 12:32 50.00675 8.88308 8375 ft 293 kts 25°
2026-05-05 12:33 50.02290 8.90195 8238 ft 292 kts 51°
2026-05-05 12:33 50.03251 8.92905 8116 ft 290 kts 72°
2026-05-05 12:33 50.03922 8.95863 7975 ft 290 kts 69°
2026-05-05 12:33 50.05037 8.98443 7604 ft 289 kts 42°
2026-05-05 12:34 50.06754 8.99973 7216 ft 285 kts 14°
2026-05-05 12:34 50.08698 9.00151 6762 ft 278 kts 347°
2026-05-05 12:34 50.10439 8.98988 6101 ft 270 kts 319°
2026-05-05 12:34 50.11635 8.96820 5388 ft 263 kts 296°
2026-05-05 12:35 50.12318 8.94200 4700 ft 260 kts 287°
2026-05-05 12:35 50.12610 8.91473 4204 ft 254 kts 260°
2026-05-05 12:35 50.11839 8.89078 4119 ft 246 kts 225°
2026-05-05 12:35 50.10685 8.87373 4091 ft 219 kts 232°
2026-05-05 12:36 50.10157 8.85268 3896 ft 206 kts 259°
2026-05-05 12:36 50.09803 8.83145 3669 ft 199 kts 250°
2026-05-05 12:36 50.09339 8.81156 3438 ft 193 kts 249°
2026-05-05 12:36 50.08883 8.79232 3168 ft 185 kts 248°
2026-05-05 12:37 50.08448 8.77395 2921 ft 177 kts 249°
2026-05-05 12:37 50.08038 8.75659 2708 ft 165 kts 248°
2026-05-05 12:37 50.07658 8.74053 2516 ft 151 kts 249°
2026-05-05 12:37 50.07278 8.72451 2285 ft 153 kts 249°
2026-05-05 12:38 50.06929 8.70976 2103 ft 139 kts 248°
2026-05-05 12:38 50.06595 8.69587 1893 ft 134 kts 248°
2026-05-05 12:38 50.06277 8.68245 1701 ft 133 kts 247°
2026-05-05 12:38 50.05961 8.66891 1539 ft 133 kts 249°
2026-05-05 12:39 50.05649 8.65547 1354 ft 132 kts 247°
2026-05-05 12:39 50.05328 8.64210 1193 ft 134 kts 249°
2026-05-05 12:39 50.05001 8.62835 1002 ft 135 kts 251°
2026-05-05 12:39 50.04675 8.61462 816 ft 135 kts 251°
2026-05-05 12:40 50.04364 8.60172 655 ft 135 kts 251°
2026-05-05 12:40 50.04044 8.58799 455 ft 134 kts 250°
2026-05-05 12:40 50.03730 8.57467 376 ft 121 kts 249°
2026-05-05 12:40 50.03503 8.56522 376 ft 68 kts 249°
2026-05-05 12:41 50.03374 8.55974 377 ft 44 kts 249°
2026-05-05 12:41 50.03311 8.55521 367 ft 41 kts 278°
2026-05-05 12:41 50.03333 8.55305 374 ft 0 kts 279°
2026-05-05 12:42 50.03339 8.55248 371 ft 13 kts 282°
2026-05-05 12:42 50.03362 8.55097 339 ft 15 kts 288°
2026-05-05 12:42 50.03389 8.54991 336 ft 17 kts 296°
2026-05-05 12:43 50.03508 8.54818 335 ft 24 kts 340°
2026-05-05 12:43 50.03660 8.54727 333 ft 14 kts 340°
2026-05-05 12:43 50.03685 8.54714 334 ft 0 kts 341°
2026-05-05 12:44 50.03735 8.54719 336 ft 18 kts 26°
2026-05-05 12:44 50.03782 8.54827 336 ft 19 kts 69°
2026-05-05 12:44 50.03845 8.55098 335 ft 21 kts 70°
2026-05-05 12:44 50.03897 8.55316 335 ft 22 kts 70°
2026-05-05 12:45 50.03954 8.55554 338 ft 25 kts 69°
2026-05-05 12:45 50.04017 8.55814 334 ft 27 kts 70°
2026-05-05 12:45 50.04062 8.56003 335 ft 29 kts 70°
2026-05-05 12:45 50.04149 8.56281 335 ft 17 kts 18°
2026-05-05 12:46 50.04221 8.56250 336 ft 16 kts 340°
2026-05-05 12:46 50.04288 8.56163 333 ft 13 kts 287°
2026-05-05 12:46 50.04338 8.56056 333 ft 13 kts 340°
2026-05-05 12:46 50.04422 8.56039 335 ft 12 kts 30°
2026-05-05 12:47 50.04458 8.56141 336 ft 11 kts 69°
2026-05-05 12:47 50.04483 8.56247 333 ft 10 kts 70°
2026-05-05 12:47 50.04486 8.56317 333 ft 6 kts 134°
2026-05-05 12:47 50.04450 8.56326 335 ft 4 kts 168°
2026-05-05 12:48 50.04431 8.56331 333 ft 0 kts 170°